Regional Weather Roundup
Issued by NWS Kansas City/Pleasant Hill, MO

Home | Current Version | Previous Version | Text Only | Print | Product List | Glossary On
Versions: 1 2 3 4 5 6 7 8 9 10 11 12 13 14 15 16 17 18 19 20 21 22 23 24 25 26 27
000
ASUS43 KEAX 042210
RWREAX

WEATHER ROUNDUP FOR EASTERN KANSAS AND NORTHWEST MISSOURI
NATIONAL WEATHER SERVICE KANSAS CITY/PLEASANT HILL MO
500 PM CDT WED MAY 04 2016

KSZ040-057-103>105-MOZ028-029-037-043-042300-
...KANSAS CITY METROPOLITAN AREA...

CITY           SKY/WX    TMP DP  RH WIND       PRES   REMARKS
K.C. INTL      SUNNY     69  38  32 N16G24    29.97F
K.C. DOWNTOWN  SUNNY     71  36  27 N10G23    29.96S
LEES SUMMIT    SUNNY     69  36  29 N20G26    29.97S
OLATHE - IXD   SUNNY     69  38  32 N18       29.99S
OLATHE - OJC   SUNNY     69  36  29 NW16G28   29.97F
LAWRENCE       SUNNY     71  40  32 NW17      29.99S

$$

MOZ001>008-011>017-020>025-030>033-038>040-044>046-053-054-042300-
...NORTHERN AND CENTRAL MISSOURI...

CITY           SKY/WX    TMP DP  RH WIND       PRES   REMARKS
ST. JOSEPH     SUNNY     70  35  27 NW17      29.98F
MOSBY          CLEAR     68  34  28 NW10G22   29.97R
WARRENSBURG    MOSUNNY   70  37  30 NW16      29.95S
WHITEMAN AFB   MOSUNNY   69  40  34 NW15G24   29.93S
CLINTON        SUNNY     68  41  37 NW14G20   29.95S
SEDALIA        MOSUNNY   70  38  31 NW24G30   29.94S
WARSAW         NOT AVBL
CHILLICOTHE      N/A     68  38  33 NW8G16    29.96S
KIRKSVILLE     MOSUNNY   65  34  31 N17G25    29.93F

$$

MOZ041-047>049-056>058-063>065-088>090-097-042300-
...EASTERN AND SOUTHERN MISSOURI...

CITY           SKY/WX    TMP DP  RH WIND       PRES   REMARKS
ST. LOUIS INTL MOSUNNY   64  38  38 N16G23    29.85R
SPIRIT OF STL  MOSUNNY   64  36  35 N15G25    29.85R
COLUMBIA       MOSUNNY   68  35  29 N20G26    29.90S
JEFFERSON CITY SUNNY     69  32  25 NW18G25   29.88S
ROLLA          MOSUNNY   66  39  37 N14G26    29.87S
OSAGE BEACH    MOSUNNY   68  37  32 N9G28     29.91S
SPRINGFIELD    SUNNY     70  37  29 N18G28    29.92S
BRANSON        SUNNY     72  34  25 NW17G29   29.92S
JOPLIN         SUNNY     71  40  32 N13       29.96S
WEST PLAINS    MOSUNNY   71  36  27 NW10      29.87R

$$

IAZ060-094-KSZ022-034>040-054-083-096-NEZ052-066-093-042300-
...KANSAS...SOUTHEAST NEBRASKA AND IOWA...

CITY           SKY/WX    TMP DP  RH WIND       PRES   REMARKS
TOPEKA         SUNNY     71  38  29 NW17      29.99F
MANHATTAN      SUNNY     73  36  25 VRB7      30.01F
EMPORIA        SUNNY     71  34  25 N10G21    30.00F
CHANUTE        SUNNY     73  37  27 NW14G22   29.98F
WICHITA        SUNNY     75  32  20 N21       30.03S
OMAHA          MOSUNNY   69  38  32 N17       30.00F
LINCOLN        SUNNY     72  33  24 N16G24    30.04F
FALLS CITY     SUNNY     69  36  29 N14G25    29.99F
LAMONI         SUNNY     64  37  36 NW18G28   29.96F
DES MOINES     MOSUNNY   68  30  24 N17G23    29.95S

$$





USA.gov is the U.S. government's official web portal to all federal, state and local government web resources and services.